| time (UTC) | temp C | wind direction | speed KPH | gust KPH | rain 1hr cm | rain 24hr cm | rain mn cm | humidity % | barometer mb |
| 20260509000509 | 8 | 338 | 1.6 | 3.2 | 0.00 | 0.00 | 0.00 | 68 | 1013.5 |
| 20260509000000 | 8 | 338 | 0.0 | 3.2 | 0.00 | 0.00 | 0.00 | 69 | 1013.5 |
| 20260508235451 | 8 | 338 | 0.0 | 3.2 | 0.00 | 0.00 | 0.00 | 69 | 1013.4 |
| 20260508234939 | 8 | 338 | 0.0 | 3.2 | 0.00 | 0.00 | 0.00 | 68 | 1013.3 |
| 20260508234429 | 8 | 0 | 0.0 | 3.2 | 0.00 | 0.00 | 0.00 | 69 | 1013.1 |
| 20260508233918 | 8 | 0 | 1.6 | 3.2 | 0.00 | 0.00 | 0.00 | 69 | 1013.1 |
| 20260508232858 | 10 | 0 | 0.0 | 0.0 | 0.00 | 0.00 | 0.00 | 65 | 1013.0 |
| 20260508232348 | 10 | 0 | 0.0 | 0.0 | 0.00 | 0.00 | 0.00 | 64 | 1013.0 |
| 20260508231838 | 10 | 0 | 0.0 | 0.0 | 0.00 | 0.00 | 0.00 | 64 | 1012.8 |
| 20260508231328 | 10 | 0 | 0.0 | 0.0 | 0.00 | 0.00 | 0.00 | 63 | 1012.6 |
| 20260508230818 | 10 | 0 | 0.0 | 0.0 | 0.00 | 0.00 | 0.00 | 64 | 1012.6 |
| 20260508230308 | 10 | 0 | 0.0 | 0.0 | 0.00 | 0.00 | 0.00 | 63 | 1012.2 |
| 20260508225248 | 10 | 0 | 0.0 | 0.0 | 0.00 | 0.00 | 0.00 | 63 | 1012.4 |
| 20260508224737 | 10 | 0 | 0.0 | 0.0 | 0.00 | 0.00 | 0.00 | 65 | 1012.4 |
| 20260508224227 | 10 | 0 | 0.0 | 0.0 | 0.00 | 0.00 | 0.00 | 62 | 1012.5 |
| 20260508223717 | 10 | 0 | 0.0 | 3.2 | 0.00 | 0.00 | 0.00 | 62 | 1012.5 |
| 20260508223207 | 10 | 0 | 0.0 | 3.2 | 0.00 | 0.00 | 0.00 | 61 | 1012.5 |
| 20260508222658 | 10 | 0 | 1.6 | 6.4 | 0.00 | 0.00 | 0.00 | 60 | 1012.5 |
| 20260508222147 | 11 | 0 | 3.2 | 6.4 | 0.00 | 0.00 | 0.00 | 58 | 1012.4 |
| 20260508221126 | 11 | 248 | 0.0 | 3.2 | 0.00 | 0.00 | 0.00 | 56 | 1012.1 |
| 20260508220616 | 12 | 225 | 0.0 | 3.2 | 0.00 | 0.00 | 0.00 | 55 | 1012.0 |
| 20260508220106 | 12 | 270 | 0.0 | 3.2 | 0.00 | 0.00 | 0.00 | 54 | 1012.0 |
| 20260508215556 | 12 | 270 | 0.0 | 3.2 | 0.00 | 0.00 | 0.00 | 54 | 1012.0 |
| 20260508215046 | 12 | 248 | 1.6 | 3.2 | 0.00 | 0.00 | 0.00 | 53 | 1011.9 |
| 20260508214536 | 12 | 203 | 1.6 | 3.2 | 0.00 | 0.00 | 0.00 | 52 | 1011.9 |
| 20260508214027 | 12 | 203 | 3.2 | 3.2 | 0.00 | 0.00 | 0.00 | 51 | 1012.0 |
| 20260508213014 | 13 | 225 | 1.6 | 3.2 | 0.00 | 0.00 | 0.00 | 49 | 1012.1 |
| 20260508212455 | 13 | 225 | 0.0 | 3.2 | 0.00 | 0.00 | 0.00 | 48 | 1012.0 |
| 20260508211945 | 14 | 225 | 0.0 | 3.2 | 0.00 | 0.00 | 0.00 | 47 | 1012.1 |
| 20260508211435 | 15 | 203 | 0.0 | 3.2 | 0.00 | 0.00 | 0.00 | 45 | 1012.2 |
| 20260508210925 | 15 | 225 | 0.0 | 6.4 | 0.00 | 0.00 | 0.00 | 44 | 1012.2 |
| 20260508205905 | 16 | 248 | 1.6 | 6.4 | 0.00 | 0.00 | 0.00 | 39 | 1012.0 |
| 20260508205354 | 16 | 248 | 3.2 | 6.4 | 0.00 | 0.00 | 0.00 | 39 | 1012.2 |
| 20260508204845 | 16 | 248 | 0.0 | 6.4 | 0.00 | 0.00 | 0.00 | 40 | 1012.1 |
| 20260508203824 | 16 | 248 | 1.6 | 6.4 | 0.00 | 0.00 | 0.00 | 37 | 1012.1 |
| 20260508203314 | 16 | 248 | 3.2 | 6.4 | 0.00 | 0.00 | 0.00 | 37 | 1011.9 |
| 20260508202805 | 17 | 225 | 3.2 | 14.5 | 0.00 | 0.00 | 0.00 | 37 | 1012.0 |
| 20260508202254 | 17 | 225 | 6.4 | 14.5 | 0.00 | 0.00 | 0.00 | 34 | 1011.8 |
| 20260508201744 | 17 | 180 | 3.2 | 11.3 | 0.00 | 0.00 | 0.00 | 36 | 1011.9 |
| 20260508201233 | 17 | 270 | 4.8 | 11.3 | 0.00 | 0.00 | 0.00 | 34 | 1011.8 |
| 20260508200724 | 17 | 248 | 3.2 | 11.3 | 0.00 | 0.00 | 0.00 | 35 | 1011.8 |
| 20260508200214 | 17 | 225 | 4.8 | 14.5 | 0.00 | 0.00 | 0.00 | 35 | 1011.9 |
| 20260508195703 | 17 | 158 | 4.8 | 14.5 | 0.00 | 0.00 | 0.00 | 35 | 1011.6 |
| 20260508195153 | 17 | 180 | 3.2 | 14.5 | 0.00 | 0.00 | 0.00 | 34 | 1011.7 |
| 20260508194643 | 17 | 270 | 4.8 | 17.7 | 0.00 | 0.00 | 0.00 | 34 | 1011.8 |
| 20260508194132 | 17 | 225 | 6.4 | 17.7 | 0.00 | 0.00 | 0.00 | 33 | 1011.7 |
| 20260508193623 | 17 | 248 | 6.4 | 17.7 | 0.00 | 0.00 | 0.00 | 32 | 1011.8 |
| 20260508192602 | 17 | 315 | 6.4 | 20.9 | 0.00 | 0.00 | 0.00 | 32 | 1012.0 |
| 20260508191543 | 17 | 225 | 6.4 | 17.7 | 0.00 | 0.00 | 0.00 | 32 | 1012.2 |
| 20260508191033 | 17 | 270 | 8.0 | 17.7 | 0.00 | 0.00 | 0.00 | 30 | 1012.2 |
| 20260508190523 | 17 | 248 | 3.2 | 17.7 | 0.00 | 0.00 | 0.00 | 31 | 1012.4 |
| 20260508190012 | 17 | 203 | 6.4 | 17.7 | 0.00 | 0.00 | 0.00 | 33 | 1012.4 |
| 20260508185502 | 17 | 248 | 4.8 | 17.7 | 0.00 | 0.00 | 0.00 | 30 | 1012.5 |
| 20260508184952 | 17 | 270 | 6.4 | 17.7 | 0.00 | 0.00 | 0.00 | 30 | 1012.6 |
| 20260508183932 | 17 | 248 | 3.2 | 27.4 | 0.00 | 0.00 | 0.00 | 31 | 1012.4 |
| 20260508183422 | 17 | 270 | 9.7 | 27.4 | 0.00 | 0.00 | 0.00 | 31 | 1012.7 |
| 20260508182912 | 17 | 270 | 11.3 | 22.5 | 0.00 | 0.00 | 0.00 | 31 | 1012.9 |
| 20260508182401 | 17 | 248 | 6.4 | 24.1 | 0.00 | 0.00 | 0.00 | 31 | 1012.9 |
| 20260508181851 | 17 | 270 | 12.9 | 24.1 | 0.00 | 0.00 | 0.00 | 32 | 1012.9 |
| 20260508181341 | 16 | 270 | 6.4 | 17.7 | 0.00 | 0.00 | 0.00 | 32 | 1013.1 |
| 20260508180831 | 16 | 203 | 6.4 | 20.9 | 0.00 | 0.00 | 0.00 | 33 | 1013.1 |
| 20260508175812 | 16 | 270 | 8.0 | 20.9 | 0.00 | 0.00 | 0.00 | 32 | 1013.3 |
| 20260508175301 | 16 | 270 | 11.3 | 25.7 | 0.00 | 0.00 | 0.00 | 32 | 1013.2 |
| 20260508174750 | 16 | 158 | 6.4 | 25.7 | 0.00 | 0.00 | 0.00 | 33 | 1013.4 |
| 20260508174240 | 16 | 248 | 12.9 | 22.5 | 0.00 | 0.00 | 0.00 | 32 | 1013.7 |
| 20260508173730 | 16 | 248 | 6.4 | 22.5 | 0.00 | 0.00 | 0.00 | 34 | 1013.6 |
| 20260508173220 | 16 | 248 | 6.4 | 22.5 | 0.00 | 0.00 | 0.00 | 32 | 1013.7 |
| 20260508172710 | 16 | 248 | 12.9 | 22.5 | 0.00 | 0.00 | 0.00 | 31 | 1014.0 |
| 20260508172200 | 16 | 180 | 6.4 | 25.7 | 0.00 | 0.00 | 0.00 | 32 | 1013.9 |
| 20260508171650 | 16 | 180 | 9.7 | 25.7 | 0.00 | 0.00 | 0.00 | 32 | 1013.9 |
| 20260508171140 | 16 | 270 | 4.8 | 17.7 | 0.00 | 0.00 | 0.00 | 31 | 1014.0 |
| 20260508170630 | 16 | 270 | 6.4 | 17.7 | 0.00 | 0.00 | 0.00 | 30 | 1013.8 |
| 20260508170119 | 16 | 248 | 6.4 | 22.5 | 0.00 | 0.00 | 0.00 | 32 | 1014.4 |
| 20260508165610 | 16 | 225 | 8.0 | 22.5 | 0.00 | 0.00 | 0.00 | 32 | 1014.3 |
| 20260508165059 | 15 | 270 | 11.3 | 25.7 | 0.00 | 0.00 | 0.00 | 31 | 1014.3 |
| 20260508164549 | 15 | 248 | 11.3 | 25.7 | 0.00 | 0.00 | 0.00 | 32 | 1014.5 |
| 20260508164039 | 15 | 0 | 8.0 | 25.7 | 0.00 | 0.00 | 0.00 | 33 | 1014.5 |
| 20260508163019 | 15 | 225 | 8.0 | 29.0 | 0.00 | 0.00 | 0.00 | 32 | 1014.7 |
| 20260508162509 | 15 | 203 | 9.7 | 20.9 | 0.00 | 0.00 | 0.00 | 33 | 1014.9 |
| 20260508160939 | 15 | 203 | 6.4 | 24.1 | 0.00 | 0.00 | 0.00 | 34 | 1015.2 |
| 20260508160428 | 15 | 338 | 9.7 | 24.1 | 0.00 | 0.00 | 0.00 | 32 | 1015.1 |
| 20260508155408 | 15 | 270 | 4.8 | 20.9 | 0.00 | 0.00 | 0.00 | 35 | 1015.4 |
| 20260508154857 | 15 | 293 | 6.4 | 22.5 | 0.00 | 0.00 | 0.00 | 35 | 1015.4 |
| 20260508154348 | 15 | 293 | 6.4 | 22.5 | 0.00 | 0.03 | 0.00 | 32 | 1015.6 |
| 20260508153837 | 15 | 203 | 8.0 | 20.9 | 0.00 | 0.03 | 0.00 | 35 | 1015.4 |
| 20260508153328 | 15 | 270 | 6.4 | 17.7 | 0.00 | 0.05 | 0.00 | 36 | 1015.3 |
| 20260508152818 | 15 | 203 | 3.2 | 17.7 | 0.00 | 0.10 | 0.00 | 37 | 1015.1 |
| 20260508152307 | 14 | 293 | 8.0 | 25.7 | 0.00 | 0.13 | 0.00 | 37 | 1015.4 |
| 20260508151757 | 14 | 225 | 11.3 | 25.7 | 0.00 | 0.15 | 0.00 | 36 | 1015.3 |
| 20260508151247 | 14 | 135 | 6.4 | 17.7 | 0.00 | 0.15 | 0.00 | 37 | 1015.4 |
| 20260508150737 | 14 | 225 | 6.4 | 17.7 | 0.00 | 0.18 | 0.00 | 37 | 1015.5 |
| 20260508150227 | 13 | 293 | 6.4 | 22.5 | 0.00 | 0.18 | 0.00 | 38 | 1015.5 |
| 20260508145716 | 13 | 270 | 4.8 | 22.5 | 0.00 | 0.20 | 0.00 | 38 | 1015.6 |
| 20260508145207 | 13 | 248 | 8.0 | 20.9 | 0.00 | 0.20 | 0.00 | 41 | 1015.7 |
| 20260508144656 | 13 | 293 | 4.8 | 20.9 | 0.00 | 0.23 | 0.00 | 42 | 1015.9 |
| 20260508143637 | 13 | 293 | 9.7 | 22.5 | 0.00 | 0.36 | 0.00 | 40 | 1016.0 |
| 20260508143126 | 13 | 270 | 11.3 | 24.1 | 0.00 | 0.36 | 0.00 | 41 | 1016.3 |
| 20260508142616 | 13 | 248 | 6.4 | 27.4 | 0.00 | 0.36 | 0.00 | 41 | 1016.3 |
| 20260508142106 | 13 | 270 | 9.7 | 27.4 | 0.00 | 0.36 | 0.00 | 42 | 1016.3 |
| 20260508141556 | 12 | 270 | 6.4 | 20.9 | 0.00 | 0.36 | 0.00 | 42 | 1016.4 |
| 20260508140541 | 12 | 203 | 6.4 | 22.5 | 0.00 | 0.36 | 0.00 | 43 | 1016.8 |
| 20260508140025 | 12 | 203 | 4.8 | 22.5 | 0.00 | 0.36 | 0.00 | 43 | 1016.6 |
| 20260508135516 | 12 | 270 | 8.0 | 24.1 | 0.00 | 0.36 | 0.00 | 43 | 1016.8 |
| 20260508135005 | 12 | 270 | 11.3 | 24.1 | 0.00 | 0.36 | 0.00 | 41 | 1016.7 |
| 20260508133945 | 12 | 293 | 6.4 | 22.5 | 0.00 | 0.36 | 0.00 | 44 | 1016.7 |
| 20260508133434 | 12 | 225 | 4.8 | 17.7 | 0.00 | 0.36 | 0.00 | 44 | 1016.8 |
| 20260508132414 | 12 | 248 | 6.4 | 17.7 | 0.00 | 0.36 | 0.00 | 47 | 1017.0 |
| 20260508131905 | 11 | 248 | 11.3 | 20.9 | 0.00 | 0.36 | 0.00 | 47 | 1017.0 |
| 20260508130845 | 11 | 270 | 8.0 | 20.9 | 0.00 | 0.36 | 0.00 | 47 | 1016.8 |
| 20260508130334 | 11 | 203 | 4.8 | 20.9 | 0.00 | 0.36 | 0.00 | 46 | 1016.7 |
| 20260508125825 | 11 | 248 | 9.7 | 20.9 | 0.00 | 0.38 | 0.00 | 49 | 1016.7 |
| 20260508124804 | 11 | 225 | 4.8 | 22.5 | 0.00 | 0.61 | 0.00 | 50 | 1016.6 |
| 20260508124254 | 10 | 270 | 12.9 | 22.5 | 0.00 | 0.61 | 0.00 | 50 | 1016.3 |
| 20260508123744 | 10 | 248 | 6.4 | 17.7 | 0.00 | 0.61 | 0.00 | 55 | 1016.6 |
| 20260508123233 | 10 | 225 | 6.4 | 17.7 | 0.00 | 0.61 | 0.00 | 56 | 1016.3 |
| 20260508122724 | 10 | 270 | 6.4 | 17.7 | 0.00 | 0.61 | 0.00 | 57 | 1016.4 |
| 20260508121703 | 10 | 225 | 3.2 | 12.9 | 0.00 | 0.61 | 0.00 | 57 | 1016.4 |
| 20260508121153 | 10 | 225 | 6.4 | 17.7 | 0.00 | 0.61 | 0.00 | 57 | 1016.1 |
| 20260508120643 | 9 | 248 | 6.4 | 17.7 | 0.00 | 0.61 | 0.00 | 57 | 1016.0 |
| 20260508120133 | 9 | 270 | 6.4 | 12.9 | 0.00 | 0.61 | 0.00 | 57 | 1016.1 |
| 20260508115622 | 9 | 225 | 6.4 | 17.7 | 0.00 | 0.61 | 0.00 | 57 | 1016.1 |
| 20260508115113 | 8 | 270 | 4.8 | 17.7 | 0.00 | 0.61 | 0.00 | 59 | 1016.0 |
| 20260508114603 | 8 | 248 | 6.4 | 17.7 | 0.00 | 0.61 | 0.00 | 60 | 1015.8 |
| 20260508114053 | 8 | 248 | 4.8 | 17.7 | 0.00 | 0.61 | 0.00 | 62 | 1015.7 |
| 20260508113542 | 7 | 248 | 4.8 | 22.5 | 0.00 | 0.61 | 0.00 | 62 | 1015.6 |
| 20260508113033 | 7 | 225 | 6.4 | 22.5 | 0.00 | 0.61 | 0.00 | 62 | 1015.6 |
| 20260508112012 | 7 | 225 | 6.4 | 12.9 | 0.00 | 0.61 | 0.00 | 62 | 1015.2 |
| 20260508111502 | 7 | 248 | 6.4 | 14.5 | 0.00 | 0.61 | 0.00 | 62 | 1015.2 |
| 20260508110952 | 7 | 248 | 6.4 | 14.5 | 0.00 | 0.61 | 0.00 | 62 | 1015.4 |
| 20260508110441 | 7 | 270 | 3.2 | 11.3 | 0.00 | 0.61 | 0.00 | 63 | 1015.1 |
| 20260508105931 | 7 | 203 | 3.2 | 12.9 | 0.00 | 0.61 | 0.00 | 64 | 1015.1 |
| 20260508105422 | 7 | 180 | 3.2 | 12.9 | 0.00 | 0.61 | 0.00 | 64 | 1014.9 |
| 20260508104911 | 6 | 225 | 4.8 | 11.3 | 0.00 | 0.61 | 0.00 | 66 | 1014.9 |
| 20260508104401 | 6 | 248 | 3.2 | 11.3 | 0.00 | 0.61 | 0.00 | 68 | 1014.7 |
| 20260508103851 | 6 | 248 | 3.2 | 11.3 | 0.00 | 0.61 | 0.00 | 69 | 1014.8 |
| 20260508103342 | 6 | 225 | 1.6 | 6.4 | 0.00 | 0.61 | 0.00 | 69 | 1014.4 |
| 20260508102831 | 6 | 225 | 1.6 | 6.4 | 0.00 | 0.61 | 0.00 | 68 | 1014.5 |
| 20260508101810 | 6 | 225 | 1.6 | 6.4 | 0.00 | 0.61 | 0.00 | 67 | 1014.2 |
| 20260508100751 | 7 | 248 | 3.2 | 9.7 | 0.00 | 0.61 | 0.00 | 66 | 1014.1 |
| 20260508095730 | 7 | 203 | 3.2 | 11.3 | 0.00 | 0.61 | 0.00 | 65 | 1014.0 |
| 20260508095220 | 7 | 248 | 3.2 | 12.9 | 0.00 | 0.61 | 0.00 | 64 | 1013.8 |
| 20260508094710 | 7 | 225 | 4.8 | 12.9 | 0.00 | 0.61 | 0.00 | 63 | 1014.1 |
| 20260508094200 | 7 | 203 | 3.2 | 11.3 | 0.00 | 0.61 | 0.00 | 63 | 1013.9 |
| 20260508093649 | 7 | 248 | 4.8 | 11.3 | 0.00 | 0.61 | 0.00 | 63 | 1013.9 |
| 20260508093140 | 8 | 248 | 3.2 | 12.9 | 0.00 | 0.61 | 0.00 | 62 | 1013.6 |
| 20260508092629 | 8 | 180 | 3.2 | 12.9 | 0.00 | 0.61 | 0.00 | 61 | 1013.4 |
| 20260508092120 | 8 | 248 | 3.2 | 11.3 | 0.00 | 0.61 | 0.00 | 61 | 1013.4 |
| 20260508091609 | 8 | 248 | 3.2 | 14.5 | 0.00 | 0.61 | 0.00 | 61 | 1013.2 |
| 20260508091059 | 8 | 225 | 4.8 | 17.7 | 0.00 | 0.64 | 0.00 | 60 | 1013.3 |
| 20260508090549 | 8 | 180 | 6.4 | 17.7 | 0.00 | 0.69 | 0.00 | 60 | 1012.9 |
| 20260508085528 | 8 | 248 | 3.2 | 20.9 | 0.00 | 0.69 | 0.00 | 60 | 1013.2 |
| 20260508085019 | 8 | 248 | 4.8 | 11.3 | 0.00 | 0.69 | 0.00 | 61 | 1013.1 |
| 20260508084516 | 8 | 225 | 3.2 | 12.9 | 0.00 | 0.69 | 0.00 | 62 | 1013.1 |
| 20260508083449 | 7 | 225 | 6.4 | 9.7 | 0.00 | 0.69 | 0.00 | 63 | 1013.0 |
| 20260508082939 | 7 | 180 | 3.2 | 12.9 | 0.00 | 0.69 | 0.00 | 63 | 1012.8 |
| 20260508081919 | 8 | 248 | 3.2 | 14.5 | 0.00 | 0.69 | 0.00 | 63 | 1012.7 |
| 20260508081409 | 8 | 203 | 4.8 | 14.5 | 0.00 | 0.69 | 0.00 | 63 | 1012.5 |
| 20260508080857 | 7 | 225 | 4.8 | 17.7 | 0.00 | 0.69 | 0.00 | 63 | 1012.4 |
| 20260508080348 | 7 | 225 | 4.8 | 17.7 | 0.00 | 0.69 | 0.00 | 64 | 1012.2 |
| 20260508075838 | 7 | 203 | 3.2 | 12.9 | 0.00 | 0.69 | 0.00 | 66 | 1012.1 |
| 20260508075328 | 7 | 203 | 3.2 | 11.3 | 0.00 | 0.69 | 0.00 | 68 | 1012.1 |
| 20260508074307 | 6 | 203 | 3.2 | 14.5 | 0.00 | 0.71 | 0.00 | 69 | 1011.9 |
| 20260508073757 | 6 | 225 | 6.4 | 14.5 | 0.00 | 0.71 | 0.00 | 69 | 1011.8 |
| 20260508072736 | 7 | 203 | 3.2 | 11.3 | 0.00 | 0.71 | 0.00 | 68 | 1011.9 |
| 20260508072227 | 7 | 225 | 3.2 | 12.9 | 0.00 | 0.71 | 0.00 | 68 | 1011.4 |
| 20260508071717 | 7 | 225 | 3.2 | 12.9 | 0.00 | 0.76 | 0.00 | 67 | 1011.5 |
| 20260508071207 | 7 | 203 | 4.8 | 12.9 | 0.00 | 1.30 | 0.00 | 67 | 1011.4 |
| 20260508070147 | 7 | 203 | 3.2 | 12.9 | 0.00 | 1.45 | 0.00 | 68 | 1011.4 |
| 20260508065636 | 7 | 203 | 3.2 | 12.9 | 0.00 | 1.45 | 0.00 | 68 | 1011.5 |
| 20260508065127 | 7 | 225 | 3.2 | 12.9 | 0.00 | 1.47 | 0.00 | 68 | 1011.7 |
| 20260508064616 | 7 | 248 | 3.2 | 12.9 | 0.00 | 1.65 | 0.00 | 67 | 1011.7 |
| 20260508064105 | 7 | 225 | 3.2 | 9.7 | 0.00 | 1.70 | 0.00 | 67 | 1011.8 |
| 20260508063556 | 7 | 203 | 3.2 | 11.3 | 0.00 | 1.70 | 0.00 | 67 | 1011.8 |
| 20260508063051 | 7 | 203 | 3.2 | 12.9 | 0.00 | 1.70 | 0.00 | 66 | 1011.6 |
| 20260508062536 | 8 | 248 | 3.2 | 12.9 | 0.00 | 1.70 | 0.00 | 66 | 1011.8 |
| 20260508062025 | 8 | 225 | 6.4 | 12.9 | 0.00 | 1.70 | 0.00 | 65 | 1011.7 |
| 20260508061516 | 8 | 293 | 4.8 | 12.9 | 0.00 | 1.70 | 0.00 | 65 | 1011.7 |
| 20260508060455 | 8 | 225 | 3.2 | 11.3 | 0.00 | 1.70 | 0.00 | 62 | 1011.9 |
| 20260508055945 | 8 | 225 | 3.2 | 12.9 | 0.00 | 1.70 | 0.00 | 62 | 1012.0 |
| 20260508055435 | 8 | 248 | 3.2 | 12.9 | 0.00 | 1.70 | 0.00 | 62 | 1012.1 |
| 20260508054415 | 8 | 225 | 3.2 | 12.9 | 0.00 | 1.70 | 0.00 | 63 | 1012.3 |
| 20260508053905 | 8 | 225 | 4.8 | 9.7 | 0.00 | 1.70 | 0.00 | 64 | 1012.2 |
| 20260508052844 | 8 | 270 | 6.4 | 12.9 | 0.00 | 1.70 | 0.00 | 65 | 1012.4 |
| 20260508052334 | 7 | 225 | 3.2 | 6.4 | 0.00 | 1.70 | 0.00 | 67 | 1012.4 |
| 20260508051823 | 7 | 225 | 3.2 | 6.4 | 0.00 | 1.70 | 0.00 | 67 | 1012.3 |
| 20260508051314 | 7 | 248 | 3.2 | 6.4 | 0.00 | 1.70 | 0.00 | 67 | 1012.3 |
| 20260508050253 | 8 | 225 | 3.2 | 9.7 | 0.00 | 1.70 | 0.00 | 65 | 1012.6 |
| 20260508045744 | 8 | 270 | 1.6 | 9.7 | 0.00 | 1.70 | 0.00 | 65 | 1012.5 |
| 20260508045234 | 8 | 225 | 1.6 | 6.4 | 0.00 | 1.70 | 0.00 | 65 | 1012.4 |
| 20260508044723 | 8 | 225 | 3.2 | 6.4 | 0.00 | 1.70 | 0.00 | 65 | 1012.5 |
| 20260508044213 | 8 | 293 | 3.2 | 11.3 | 0.00 | 1.70 | 0.00 | 65 | 1012.5 |
| 20260508043703 | 8 | 248 | 3.2 | 11.3 | 0.00 | 1.70 | 0.00 | 65 | 1012.3 |
| 20260508043152 | 8 | 270 | 3.2 | 11.3 | 0.00 | 1.70 | 0.00 | 64 | 1012.6 |
| 20260508042133 | 8 | 248 | 6.4 | 12.9 | 0.00 | 1.70 | 0.00 | 62 | 1012.4 |
| 20260508041623 | 8 | 270 | 3.2 | 11.3 | 0.00 | 1.70 | 0.00 | 64 | 1012.4 |
| 20260508041112 | 8 | 270 | 3.2 | 9.7 | 0.00 | 1.70 | 0.00 | 66 | 1012.5 |
| 20260508040602 | 7 | 270 | 3.2 | 9.7 | 0.00 | 1.70 | 0.00 | 70 | 1012.4 |
| 20260508035543 | 7 | 293 | 3.2 | 11.3 | 0.00 | 1.70 | 0.00 | 70 | 1012.3 |
| 20260508035032 | 7 | 248 | 4.8 | 9.7 | 0.00 | 1.70 | 0.00 | 70 | 1012.3 |
| 20260508034522 | 7 | 293 | 3.2 | 9.7 | 0.00 | 1.70 | 0.00 | 71 | 1012.4 |
| 20260508034012 | 7 | 293 | 3.2 | 6.4 | 0.00 | 1.70 | 0.00 | 71 | 1012.4 |
| 20260508033502 | 7 | 270 | 1.6 | 6.4 | 0.00 | 1.70 | 0.00 | 71 | 1012.4 |
| 20260508032952 | 7 | 293 | 3.2 | 6.4 | 0.00 | 1.70 | 0.00 | 70 | 1012.5 |
| 20260508031931 | 8 | 293 | 3.2 | 6.4 | 0.00 | 1.70 | 0.00 | 68 | 1012.2 |
| 20260508031421 | 8 | 293 | 3.2 | 6.4 | 0.00 | 1.70 | 0.00 | 70 | 1012.3 |
| 20260508030912 | 8 | 248 | 0.0 | 3.2 | 0.00 | 1.70 | 0.00 | 69 | 1012.0 |
| 20260508030401 | 8 | 248 | 0.0 | 3.2 | 0.00 | 1.70 | 0.00 | 68 | 1011.7 |
| 20260508025851 | 8 | 248 | 0.0 | 6.4 | 0.00 | 1.70 | 1.70 | 67 | 1011.8 |
| 20260508025340 | 8 | 270 | 3.2 | 6.4 | 0.00 | 1.70 | 1.70 | 66 | 1012.0 |
| 20260508024830 | 8 | 248 | 3.2 | 6.4 | 0.00 | 1.70 | 1.70 | 66 | 1011.9 |
| 20260508024321 | 8 | 248 | 3.2 | 6.4 | 0.00 | 1.70 | 1.70 | 66 | 1011.7 |
| 20260508023810 | 8 | 248 | 3.2 | 6.4 | 0.00 | 1.70 | 1.70 | 66 | 1011.8 |
| 20260508023300 | 8 | 225 | 3.2 | 6.4 | 0.00 | 1.70 | 1.70 | 66 | 1011.9 |
| 20260508022242 | 8 | 248 | 3.2 | 6.4 | 0.00 | 1.70 | 1.70 | 66 | 1011.8 |
| 20260508021730 | 8 | 248 | 3.2 | 6.4 | 0.00 | 1.70 | 1.70 | 67 | 1011.9 |
| 20260508021220 | 8 | 225 | 3.2 | 6.4 | 0.00 | 1.70 | 1.70 | 68 | 1011.7 |
| 20260508020709 | 8 | 270 | 3.2 | 6.4 | 0.00 | 1.70 | 1.70 | 69 | 1011.9 |
| 20260508020159 | 8 | 270 | 3.2 | 6.4 | 0.00 | 1.70 | 1.70 | 69 | 1011.7 |
| 20260508015650 | 8 | 248 | 3.2 | 6.4 | 0.00 | 1.70 | 1.70 | 70 | 1011.8 |
| 20260508015139 | 8 | 270 | 3.2 | 6.4 | 0.00 | 1.70 | 1.70 | 70 | 1011.8 |
| 20260508014630 | 8 | 225 | 3.2 | 6.4 | 0.00 | 1.70 | 1.70 | 70 | 1011.8 |
| 20260508014119 | 8 | 225 | 3.2 | 6.4 | 0.00 | 1.70 | 1.70 | 71 | 1011.8 |
| 20260508013609 | 9 | 225 | 1.6 | 6.4 | 0.00 | 1.70 | 1.70 | 71 | 1012.0 |
| 20260508012551 | 9 | 293 | 3.2 | 9.7 | 0.00 | 1.70 | 1.70 | 71 | 1012.0 |
| 20260508012039 | 9 | 270 | 4.8 | 9.7 | 0.00 | 1.70 | 1.70 | 70 | 1011.8 |
| 20260508011529 | 9 | 248 | 4.8 | 6.4 | 0.00 | 1.70 | 1.70 | 69 | 1011.8 |
| 20260508011019 | 10 | 270 | 3.2 | 6.4 | 0.00 | 1.70 | 1.70 | 69 | 1011.8 |
| 20260508010509 | 10 | 248 | 3.2 | 9.7 | 0.00 | 1.70 | 1.70 | 68 | 1011.9 |
| 20260508005959 | 10 | 270 | 3.2 | 9.7 | 0.00 | 1.70 | 1.70 | 68 | 1011.9 |
| 20260508004959 | 10 | 270 | 4.8 | 9.7 | 0.00 | 1.70 | 1.70 | 69 | 1011.6 |
| 20260508004429 | 9 | 270 | 3.2 | 6.4 | 0.00 | 1.70 | 1.70 | 71 | 1011.8 |
| 20260508003919 | 10 | 270 | 3.2 | 6.4 | 0.00 | 1.70 | 1.70 | 70 | 1011.6 |
| 20260508003407 | 10 | 225 | 3.2 | 6.4 | 0.00 | 1.70 | 1.70 | 70 | 1011.7 |
| 20260508002901 | 9 | 270 | 3.2 | 6.4 | 0.00 | 1.70 | 1.70 | 71 | 1011.7 |
| 20260508002350 | 9 | 270 | 3.2 | 6.4 | 0.00 | 1.70 | 1.70 | 72 | 1011.7 |
| 20260508001837 | 9 | 248 | 3.2 | 6.4 | 0.00 | 1.70 | 1.70 | 72 | 1011.6 |
| 20260508001327 | 10 | 293 | 3.2 | 6.4 | 0.00 | 1.70 | 1.70 | 72 | 1011.5 |